Main page
METAR-TAF:

METAR-TAF

Airports :

Persian Gulf Airport

Asaluyeh, Iran

latitude: 27-22-46N, longitude: 52-44-15E, elevation: 8 m

Current weather observation

The report was made 38 minutes ago, at 05:00 UTC
Wind 6 kt from the South/Southeast
Temperature 36°C
Humidity 60%
Pressure 997 hPa
Visibility: 6000 m

METAR: OIBP 150500Z 15006KT 6000 NSC 36/27 Q0997 A2945

Time: 10:08 (05:38 UTC)


TAF: missing

Weather observations and forecasts of more than 4000 airports (METAR and TAF reports).

The available stations are represented by yellow and red dots on the map.

Hover mouse over dot to see the name of the station.

Then click to see weather observations and forecasts.

To change the map : click on the green buttons with a black cross to zoom in, on the green button with a dash to zoom out, or on the green arrows for adjacent maps.


METAR-TAF: